www.pogodaiklimat.ru
ПОГОДА на Бач Лонг Ви
Время
(UTC), дата
15 11.09
18 11.09
21 11.09
00 12.09
03 12.09
06 12.09
09 12.09
12 12.09
15 12.09
18 12.09
21 12.09
00 13.09
03 13.09
06 13.09
09 13.09
12 13.09
15 13.09
18 13.09
21 13.09
00 14.09
03 14.09
06 14.09
09 14.09
12 14.09
15 14.09
18 14.09
21 14.09
00 15.09
03 15.09
06 15.09
09 15.09
12 15.09
15 15.09
18 15.09
21 15.09
00 16.09
03 16.09
06 16.09
09 16.09
12 16.09
15 16.09
18 16.09
21 16.09
00 17.09
03 17.09
06 17.09
09 17.09
12 17.09
15 17.09
18 17.09
21 17.09
00 18.09
03 18.09
06 18.09
09 18.09
12 18.09
Ветер
(напр.,м/с)
Видим. Явления Облачность Т
(С)
Тd
(С)
f
(%)
Тe
(С)
Тes
(С)
Комфортность P
(гПа)
Po
(гПа)
Тmin
(С)
Tmax
(С)
R
(мм)
R24
(мм)
S
(см)
Ю 4 10 км 6/0
[Cs]
+29.4 +27.1 87 +46 +46 опасность
перегрева
1008.3 1002.0
Ю 5 10 км 8/8
[Cu Sc]
+29.3 1008.1 1001.8
Ю 4 10 км зарница 8/8 300 м
[Cb cap]
+28.9 +26.8 88 +45 +45 опасность
перегрева
1007.8 1001.4
Ю 3 10 км 8/8 300 м
[Cu med, cong]
+29.0 +0.1 15 +26 +27 жарко 1009.6 1003.2 +2.8
Ю 3 10 км {ливн. дождь} 9/9 600 м
[Cb cap]
+29.4 +27.1 87 +46 +48 опасность
перегрева
1010.3 1003.9
Ю 3 10 км {ливн. дождь} 8/8 600 м
[Cu med, cong Ac inh Cc]
+33.2 0.0 12 +57 +65 опасность
перегрева
1009.1 1002.8 +28.0 2
Ю 2 10 км 8/8 300 м
[Cb cap]
+31.9 -9.0 7 +51 +52 опасность
перегрева
1008.0 1001.7
ЮВ 3 10 км 9/1 600 м
[Cu med, cong Cs]
+29.3 0.0 15 +27 +27 жарко 1009.4 1003.0 +33.3 2 1.9
ЮВ 4 10 км зарница 8/3 300 м
[Cb cap Cs]
+28.8 +26.8 89 +45 +45 опасность
перегрева
1011.2 1004.8
ЮВ 2 10 км 3/3
[Cu hum]
+28.7 1010.5 1004.1
Ю 2 10 км 8/8 300 м
[Cu med, cong]
+28.4 +26.7 91 +44 +44 опасность
перегрева
1009.5 1003.1
ЮВ 2 10 км 8/3 600 м
[Cb cap Cs]
+28.4 0.0 16 +26 +27 жарко 1010.7 1004.3 +2.8
ЮВ 2 10 км 8/4 600 м
[Cu med, cong Cs]
+32.2 -9.0 6 +54 +62 опасность
перегрева
1011.7 1005.4
Ю 2 10 км 9/9
[Cu Sc]
+32.5 0.0 12 +29 +31 жарко 1009.8 1003.5
В 1 10 км 8/8 300 м
[Cb cap]
+31.8 +26.9 75 +49 +50 опасность
перегрева
1008.4 1002.1
В 2 10 км 8/8 300 м
[Cu Sc]
+29.1 0.0 15 +26 +26 жарко 1009.1 1002.7 +3.3
В 2 10 км 9/9 300 м
[Cu Sc]
+28.7 +26.0 85 +43 +43 опасность
перегрева
1010.6 1004.2
В 2 10 км 8/3
[Cu hum Cs]
+28.3 +25.9 87 +42 +42 опасность
перегрева
1009.3 1002.9
ЮВ 1 10 км 8/8 300 м
[Cu Sc]
+28.4 +26.4 89 +43 +43 опасность
перегрева
1008.8 1002.4
В 2 10 км гроза без осадков 9/9 <50 м
[Cb cap]
+27.7 0.0 16 +25 +26 комфорт 1010.2 1003.8 +27.7
В 1 10 км 9/9 300 м
[Cu Sc]
+31.0 -8.8 7 +48 +50 опасность
перегрева
1010.1 1003.8
З 2 10 км 8/3
[Cu med, cong Cs]
+30.6 0.0 14 +28 +38 жарко 1008.4 1002.1
С 1 10 км 9/9 600 м
[Cu Sc]
+30.6 +26.5 79 +47 +48 опасность
перегрева
1006.8 1000.5
СВ 1 10 км 9/9 1000 м
[Sc]
+28.6 0.0 16 +26 +26 жарко 1007.6 1001.2 +3.1
ЮВ 2 10 км 4/4 300 м
[Cu Sc]
+28.3 +26.0 87 +42 +42 опасность
перегрева
1008.9 1002.5
Ю 2 10 км 1/1
[Cu med, cong]
+28.1 1008.4 1002.0
Ю 1 10 км 1/1 600 м
[Cu med, cong]
+28.1 +25.7 87 +42 +42 опасность
перегрева
1007.7 1001.3
ЮЗ 1 10 км 8/8 600 м
[Cu Sc]
+28.4 0.0 16 +26 +26 жарко 1009.0 1002.6 +2.8
З 1 10 км 8/3 600 м
[Cu med, cong Cs]
+31.2 -8.7 7 +48 +59 опасность
перегрева
1009.4 1003.1
З 2 20 км 8/3
[Cu med, cong Cs]
+31.6 0.0 13 +28 +39 жарко 1007.4 1001.1
СВ 1 20 км 8/4 600 м
[Cb cap Cs]
+31.9 +26.2 72 +48 +51 опасность
перегрева
1005.0 998.7
ЮВ 2 20 км 8/1 300 м
[Cu hum Cs]
+29.1 +25.7 82 +43 +43 опасность
перегрева
1003.9 999.6 +33.0
Ю 2 20 км 3/3 600 м
[Cu med, cong]
+28.9 +26.3 86 +44 +44 опасность
перегрева
1007.9 1001.5
Ю 2 20 км 3/3
[Cu med, cong]
+28.5 1007.0 1000.6
Ю 2 20 км 3/3 600 м
[Cu med, cong]
+28.4 +26.1 87 +43 +43 опасность
перегрева
1006.4 1000.0
Ю 1 20 км 3/3 300 м
[Cu med, cong]
+28.6 0.0 16 +26 +28 жарко 1007.3 1000.9 +2.7
Ю 2 20 км 4/4 600 м
[Cu med, cong]
+32.7 -8.8 6 +52 +62 опасность
перегрева
1008.1 1001.8
Ю 3 20 км 1/1
[Cu med, cong]
+33.3 +0.1 12 +30 +43 жарко 1006.5 1000.2
ЮВ 2 20 км 3/1 600 м
[Cu med, cong Ci fib]
+32.7 +27.0 72 +51 +54 опасность
перегрева
1004.3 998.0
В 1 20 км 3/3 1000 м
[Sc]
+29.3 0.0 15 +27 +27 жарко 1004.9 998.6 +3.3
В 2 20 км 3/3 1000 м
[Sc]
+28.6 +25.5 83 +42 +42 опасность
перегрева
1006.4 1000.0
В 2 20 км 1/1
[Sc]
+28.8 +25.4 82 +42 +42 опасность
перегрева
1005.9 999.5
В 2 20 км 1/1 600 м
[Cu med, cong]
+28.4 +26.0 87 +43 +43 опасность
перегрева
1004.5 998.1
В 3 20 км 8/8 300 м
[Cb cap]
+29.0 +27.0 100 +26 +27 жарко 1005.1 998.8 +2.8
В 3 20 км 6/0
[Cs]
+32.9 +27.8 75 +53 +64 опасность
перегрева
1006.2 999.9
С 5 20 км 8/8
[Cb cap]
+33.1 +27.7 73 +53 +55 опасность
перегрева
1003.8 997.5
СВ 7 20 км 9/3 600 м
[Cu med, cong Cs]
+31.6 +27.0 77 +50 +50 опасность
перегрева
1001.9 995.6
В 4 10 км сильн. гроза с градом 10/6 300 м
[St Ac inh Cs]
+30.0 +27.2 85 +48 +48 опасность
перегрева
1003.6 997.3 +34.0 0.0 0.1
В 4 10 км в посл. час ливневой дождь {гроза} 9/9 300 м
[Cb cap]
+29.6 +27.0 86 1004.6 998.3 0.0
СВ 7 10 км зарница {гроза, ливн. дождь} 4/4 300 м
[Cb cap Ac inh Cs]
+29.6 +26.5 83 +45 +45 опасность
перегрева
1002.6 996.3 0.0
СВ 12
{19}
10 км зарница 4/4 300 м
[Cb cap]
+29.8 +25.8 79 +44 +44 опасность
перегрева
1001.8 995.5
С 16 10 км {ливн. дождь} 10/3 300 м
[Cb cap Ac inh Cs]
+27.7 +27.1 97 +40 +40 очень
душно
1002.6 996.3 +27.1 0.0
С 14
{23}
10 км {ливн. дождь} 10/10 300 м
[Cu Sc]
+27.2 1004.4 998.0 0.4
СВ 15 10 км гроза без осадков {ливн. снег} 10/8 300 м
[Cb cap Ac inh Cs]
+27.5 +25.0 86 +39 +39 очень
душно
1002.3 996.0 0.8
СВ 7 20 км 9/3 600 м
[Cu med, cong Cs]
+31.6 +27.0 77 +50 +50 опасность
перегрева
1001.9 995.6
СВ 14 10 км {гроза} 10/1 300 м
[Cb cap Ac inh Cs]
+26.8 +25.2 91 +39 +39 очень
душно
1003.4 997.0 +26.2 +33.3 7 8.4
Местоположение метеостанции Бач Лонг Ви (Вьетнам): широта 20.13 долгота 107.71 высота над уровнем моря 56 м.
В архиве по умолчанию представлена погода на Бач Лонг Ви за последнюю неделю. Архивные данные за месяц целиком и за предыдущие месяцы, начиная с января 2011 года, Вы можете получить, выбрав интересующий диапазон дат из раскрывающегося списка и нажав кнопку "Найти!".
*Определитесь, кто Вы:
Внимание! Время в таблицах - всемирное. Для получения местного времени необходимо прибавить поправку, которая равна 7 ч.
Смотрите также архив погоды в соседних городах и на ближайших метеорологических станциях:
Партнеры нашего сайта:      
Пояснения к столбцам:
  • Ветер - указаны скорость ветра в м/с - средняя за 10 мин, порывы в срок и между сроками (в фигурных скобках) и направление, откуда дует ветер: С - северный,
  • СВ - северо-восточный, В - восточный, ЮВ - юго-восточный, Ю - южный, ЮЗ - юго-западный, З - западный, СЗ - северо-западный.
  • Видимость - горизонтальная дальность видимости в метрах или километрах. При видимости от 1 до 10 км при отсутствии осадков обычно наблюдается дымка, при ухудшении видимости до 1 км и менее - туман. В сухую погоду видимость может ухудшаться дымом, пылью или мглою.
  • Явления - указаны атмосферные явления, наблюдавшиеся в срок или в последний час перед сроком; фигурными скобками обозначены явления, наблюдавшиеся между сроками (за 1-3 часа до срока); квадратными скобками обозначены град или гололедные отложения с указанием их диаметра в мм.
  • Облачность - указаны через наклонную черту общая и нижняя облачность в баллах и высота нижней границы облаков в метрах; квадратными скобками обозначены формы облаков: Ci - перистые, Cs - перисто-слоистые, Cc - перисто-кучевые, Ac - высококучевые, As - высокослоистые, Sc - слоисто-кучевые, Ns - слоисто-дождевые, Cu - кучевые, Cb - кучево-дождевые. Подробнее классификацию облаков см. в Атласе облаков (PDF).
  • T - Температура воздуха - температура, измеренная на высоте 2 м над землей.
  • Td - Температура точки росы - температура, при понижении до которой содержащийся в воздухе водяной пар достигнет насыщения.
  • f - Относительная влажность воздуха - влажноcть воздуха, измеренная на высоте 2 м над землей.
  • Te - Эффективная температура - температура, которую ощущает одетый по сезону человек в тени. Характеристика душности погоды. При расчете учитывается влияние влажности воздуха и скорости ветра на теплоощущения человека.
  • Tes - Эффективная температура на солнце - температура, которую ощущает человек, с поправкой на солнечный нагрев. Характеристика знойности погоды. Зависит от высоты солнца над горизонтом, облачности и скорости ветра. Ночью, в пасмурную погоду, а также при ветре 12 м/с и более поправка равна нулю.
  • P - Атмосферное давление - приведенное к уровню моря атмосферное давление.
  • Po - Атмосферное давление - измеренное на уровне метеостанции атмосферное давление.
  • Tmin - Минимальная температура - минимум температуры воздуха на высоте 2 м над землей.
  • Tmax - Максимальная температура - максимум температуры воздуха на высоте 2 м над землей.
  • R - Количество осадков - Количество выпавших осадков за период времени, мм. При наведении курсора мыши на число - период времени, за который выпало указанное количество осадков.
  • R24 - Количество осадков - Количество выпавших осадков за 24 часа, мм.
  • S - Снежный покров - Высота снежного покрова, см. При наведении курсора мыши на число - состояние снежного покрова и степень покрытия местности в баллах.